{"data":{"norad_id":39079,"intl_designator":"2013-006B","name":"AZERSPACE 1","alt_names":[],"object_type":"PAYLOAD","status":"ACTIVE","operator":null,"country":"AZER","launch_date":"2013-02-07","launch_site_code":"FRGUI","launch_vehicle":null,"mission":null,"orbit_class":"UNKNOWN","rcs_meters":50.1187,"size_class":null,"mass_kg":null,"dimensions":null,"purposes":["comms"],"wikipedia_slug":null,"has_3d_model":false,"image_url":null,"decayed_at":null,"tle_current":{"epoch":"2026-09-19T10:20:45.024288Z","epoch_age_seconds":117992,"freshness":"FRESH","line1":"1 39079U 13006B   26262.43107667  .00000000  00000+0  00000+0 0  9998","line2":"2 39079   0.0188 161.6029 0001751  37.4658   0.4903  1.00274763 49750","mean_motion":1.00274763,"eccentricity":0.0001751,"inclination_deg":0.0188,"raan_deg":161.6029,"arg_perigee_deg":37.4658,"mean_anomaly_deg":0.4903,"bstar":0,"rev_number":4975,"period_min":1436.0542542494,"perigee_km":35778.377241958,"apogee_km":35793.143038737,"semimajor_km":42163.897140347,"source":"CELESTRAK","updated_at":"2026-09-20T09:00:35.180597Z"}}}